Ishigakijima, Japan

7:43 PM JST on May 27, 2017 (GMT +0900)
Ishigaki

Weather History for ROIG - March, 2014

Change the Weather History Date:

Monday, March 24, 2014

  Actual Average Record
Temperature  
Mean Temperature 70 °F -  
Max Temperature 75 °F 77 °F 82 °F (2001)
Min Temperature 65 °F 68 °F 53 °F (2008)
Cooling Degree Days 5    
Growing Degree Days 20 (Base 50)    
Moisture  
Dew Point 58 °F    
Average Humidity 61    
Maximum Humidity 88    
Minimum Humidity 43    
Precipitation  
Precipitation 0.00 in 0.19 in - ()
Sea Level Pressure  
Sea Level Pressure 30.15 in    
Wind  
Wind Speed 10 mph ()    
Max Wind Speed 14 mph    
Max Gust Speed -    
Visibility 9.2 miles    
Events Rain    
Averages and records for this station are not official NWS values.
T = Trace of Precipitation, MM = Missing Value Source: Averaged Metar Reports

Daily Weather History Graph

Daily Weather History Graph

Search for Another Location

Airport or City:

Trip Planner

Search our weather history database for the weather conditions in past years. The results will help you decide how hot, cold, wet, or windy it might be!

Date:

Astronomy

Mar. 24, 2014 Rise Set
Actual Time 6:43 AM JST 6:55 PM JST
Civil Twilight 6:21 AM JST 7:18 PM JST
Nautical Twilight 5:54 AM JST 7:45 PM JST
Astronomical Twilight 5:28 AM JST 8:11 PM JST
Moon 1:05 AM JST (3/24) 12:19 PM JST (3/24)
Length of Visible Light 12h 57m
Length of Day
12h 12m
Waning Gibbous, 49% of the Moon is Illuminated
Mar 24
Waning Gibbous
Mar 31
New
Apr 7
First Quarter
Apr 15
Full
Apr 22
Last Quarter

Hourly Weather History & Observations

Time (JST) Temp. Dew Point Humidity Pressure Visibility Wind Dir Wind Speed Gust Speed Precip Events Conditions
12:00 AM 67 °F 55 °F 56% 30.25 in - East 12.7 mph - -  
1:00 AM 67 °F 54 °F 53% 30.24 in - East 12.7 mph - -  
2:00 AM 67 °F 54 °F 54% 30.22 in - East 12.7 mph - -  
3:00 AM 67 °F 55 °F 57% 30.20 in 12 mi East 10.4 mph - -   Mostly Cloudy
4:00 AM 67 °F 55 °F 56% 30.19 in - East 10.4 mph - -  
5:00 AM 67 °F 54 °F 52% 30.19 in - East 10.4 mph - -  
6:00 AM 66 °F 53 °F 53% 30.19 in 12 mi East 10.4 mph - -   Mostly Cloudy
6:00 AM 66.2 °F 51.8 °F 60% 30.15 in 6.2 mi East 11.5 mph - N/A   Mostly Cloudy
7:00 AM 66 °F 54 °F 56% 30.20 in - East 9.2 mph - -  
7:00 AM 66.2 °F 51.8 °F 60% 30.18 in 6.2 mi East 11.5 mph - N/A   Partly Cloudy
8:00 AM 67 °F 56 °F 58% 30.22 in - ENE 5.8 mph - -  
8:00 AM 66.2 °F 53.6 °F 64% 30.18 in 6.2 mi East 9.2 mph - N/A   Scattered Clouds
9:00 AM 68 °F 58 °F 61% 30.22 in 16 mi East 8.1 mph - - Rain Light Rain Showers
9:00 AM 68.0 °F 55.4 °F 64% 30.18 in 6.2 mi East 10.4 mph - N/A Rain Light Rain Showers
10:00 AM 69 °F 56 °F 54% 30.21 in - ESE 12.7 mph - -  
10:00 AM 69.8 °F 53.6 °F 56% 30.18 in 6.2 mi East 11.5 mph - N/A   Mostly Cloudy
11:00 AM 73 °F 55 °F 43% 30.20 in - ESE 13.8 mph - -  
11:00 AM 71.6 °F 53.6 °F 53% 30.18 in 6.2 mi East 12.7 mph - N/A   Partly Cloudy
12:00 PM 74 °F 57 °F 46% 30.19 in 19 mi ESE 13.8 mph - -   Partly Cloudy
12:00 PM 71.6 °F 53.6 °F 53% 30.15 in 6.2 mi East 11.5 mph - N/A   Partly Cloudy
1:00 PM 74 °F 58 °F 47% 30.17 in - ESE 10.4 mph - -  
1:00 PM 71.6 °F 55.4 °F 57% 30.15 in 6.2 mi East 10.4 mph - N/A   Partly Cloudy
2:00 PM 74 °F 58 °F 48% 30.14 in - ESE 11.5 mph - -  
2:00 PM 73.4 °F 57.2 °F 57% 30.12 in 6.2 mi East 10.4 mph - N/A   Scattered Clouds
3:00 PM 74 °F 59 °F 50% 30.12 in 19 mi East 11.5 mph - -   Partly Cloudy
3:00 PM 73.4 °F 57.2 °F 57% 30.09 in 6.2 mi East 11.5 mph - N/A   Partly Cloudy
4:00 PM 73 °F 60 °F 54% 30.10 in - East 9.2 mph - -  
4:00 PM 71.6 °F 59.0 °F 64% 30.06 in 6.2 mi East 10.4 mph - N/A   Partly Cloudy
5:00 PM 73 °F 62 °F 60% 30.10 in - East 8.1 mph - -  
5:00 PM 69.8 °F 60.8 °F 73% 30.06 in 6.2 mi ENE 9.2 mph - N/A   Partly Cloudy
6:00 PM 71 °F 62 °F 65% 30.10 in 19 mi East 9.2 mph - -   Scattered Clouds
6:00 PM 69.8 °F 64.4 °F 83% 30.06 in 6.2 mi East 5.8 mph - N/A   Partly Cloudy
7:00 PM 71 °F 63 °F 68% 30.11 in - ESE 12.7 mph - -  
7:00 PM 69.8 °F 66.2 °F 88% 30.09 in 6.2 mi ESE 12.7 mph - N/A   Partly Cloudy
8:00 PM 70 °F 63 °F 73% 30.12 in - ESE 12.7 mph - -  
8:00 PM 69.8 °F 66.2 °F 88% 30.09 in 6.2 mi East 12.7 mph - N/A   Scattered Clouds
9:00 PM 70 °F 64 °F 77% 30.12 in 12 mi ESE 12.7 mph - -   Scattered Clouds
10:00 PM 70 °F 64 °F 77% 30.14 in - ESE 13.8 mph - -  
11:00 PM 70 °F 64 °F 76% 30.14 in - ESE 13.8 mph - -